Weather History for Hurlburt Field, FL

Change the Weather History Date:

Tuesday, January 29, 2013

  Actual Average Record
Temperature  
Mean Temperature 68 °F -  
Max Temperature 72 °F 59 °F 73 °F (2002)
Min Temperature 64 °F 42 °F 17 °F (2008)
Cooling Degree Days 3    
Growing Degree Days 18 (Base 50)    
Moisture  
Dew Point 68 °F    
Average Humidity 100    
Maximum Humidity 100    
Minimum Humidity 100    
Precipitation  
Precipitation 0.03 in - - ()
Sea Level Pressure  
Sea Level Pressure 30.09 in    
Wind  
Wind Speed 10 mph (SE)    
Max Wind Speed 16 mph    
Max Gust Speed 22 mph    
Visibility 10 miles    
Events Rain    
Averages and records for this station are not official NWS values.
T = Trace of Precipitation, MM = Missing Value Source: NWS Daily Summary

Daily Weather History Graph

Daily Weather History Graph

Search for Another Location

Airport:

Trip Planner

Search our weather history database for the weather conditions in past years. The results will help you decide how hot, cold, wet, or windy it might be!

Date:

Astronomy

Jan. 29, 2013 Rise Set
Actual Time 6:39 AM CST 5:20 PM CST
Civil Twilight 6:13 AM CST 5:46 PM CST
Nautical Twilight 5:45 AM CST 6:15 PM CST
Astronomical Twilight 5:16 AM CST 6:43 PM CST
Moon 8:00 PM CST (1/29) 7:50 AM CST (1/29)
Length of Visible Light 11h 32m
Length of Day
10h 41m
Waning Gibbous, 93% of the Moon is Illuminated
Jan 29
Waning Gibbous
Feb 3
Last Quarter
Feb 10
New
Feb 17
First Quarter
Feb 25
Full

Hourly Weather History & Observations

Time (CST) Temp. Dew Point Humidity Pressure Visibility Wind Dir Wind Speed Gust Speed Precip Events Conditions
12:00 AM 64.4 °F 64.4 °F 100% 30.19 in 10.0 mi SE 5.8 mph - N/A   Light Drizzle
12:05 AM 64.4 °F 64.4 °F 100% 30.18 in 10.0 mi SE 6.9 mph - N/A   Light Drizzle
12:55 AM 64.9 °F 64.9 °F 100% 30.17 in 10.0 mi SE 6.9 mph - 0.00 in   Light Drizzle
1:55 AM 65.3 °F 65.3 °F 100% 30.15 in 10.0 mi SSE 9.2 mph - 0.00 in   Light Drizzle
2:55 AM 65.5 °F 65.5 °F 100% 30.14 in 10.0 mi SSE 8.1 mph - 0.00 in   Light Drizzle
3:06 AM 66.2 °F 66.2 °F 100% 30.14 in 10.0 mi SE 9.2 mph - N/A   Light Drizzle
3:32 AM 66.2 °F 66.2 °F 100% 30.14 in 10.0 mi SE 8.1 mph - N/A   Mostly Cloudy
3:43 AM 66.2 °F 66.2 °F 100% 30.14 in 10.0 mi SE 8.1 mph - N/A   Light Drizzle
3:55 AM 66.2 °F 66.2 °F 100% 30.14 in 10.0 mi SE 8.1 mph - 0.00 in   Light Drizzle
4:11 AM 66.2 °F 66.2 °F 100% 30.14 in 10.0 mi SE 8.1 mph - N/A   Light Drizzle
4:13 AM 66.2 °F 66.2 °F 100% 30.14 in 10.0 mi SE 8.1 mph - N/A   Light Drizzle
4:55 AM 66.6 °F 66.6 °F 100% 30.14 in 10.0 mi ESE 10.4 mph - 0.00 in   Light Drizzle
4:59 AM 66.2 °F 66.2 °F 100% 30.14 in 10.0 mi ESE 11.5 mph - N/A   Light Drizzle
5:09 AM 66.2 °F 66.2 °F 100% 30.14 in 10.0 mi ESE 10.4 mph - N/A   Light Drizzle
5:18 AM 66.2 °F 66.2 °F 100% 30.14 in 10.0 mi SE 10.4 mph - N/A   Light Drizzle
5:20 AM 66.2 °F 66.2 °F 100% 30.14 in 10.0 mi ESE 11.5 mph - N/A   Light Drizzle
5:36 AM 66.2 °F 66.2 °F 100% 30.14 in 10.0 mi ESE 11.5 mph - N/A   Light Drizzle
5:52 AM 66.2 °F 66.2 °F 100% 30.15 in 10.0 mi ESE 9.2 mph - N/A   Overcast
5:55 AM 66.6 °F 66.6 °F 100% 30.15 in 10.0 mi ESE 10.4 mph - 0.00 in   Overcast
5:57 AM 66.2 °F 66.2 °F 100% 30.15 in 10.0 mi ESE 10.4 mph - N/A   Light Drizzle
5:58 AM 66.2 °F 66.2 °F 100% 30.15 in 10.0 mi ESE 11.5 mph - N/A   Overcast
5:59 AM 66.2 °F 66.2 °F 100% 30.15 in 10.0 mi ESE 11.5 mph - N/A   Light Drizzle
6:14 AM 66.2 °F 66.2 °F 100% 30.14 in 10.0 mi SE 11.5 mph - N/A   Light Drizzle
6:17 AM 66.2 °F 66.2 °F 100% 30.14 in 10.0 mi SE 11.5 mph - N/A   Light Drizzle
6:55 AM 66.0 °F 66.0 °F 100% 30.14 in 10.0 mi ESE 11.5 mph - 0.00 in   Light Drizzle
7:44 AM 66.2 °F 66.2 °F 100% 30.14 in - SE 10.4 mph - N/A   Light Drizzle
7:55 AM 66.2 °F 66.2 °F 100% 30.14 in 10.0 mi ESE 10.4 mph - N/A   Mostly Cloudy
7:57 AM 66.2 °F 66.2 °F 100% 30.14 in 10.0 mi SE 10.4 mph - N/A   Light Drizzle
8:03 AM 66.2 °F 66.2 °F 100% 30.14 in 10.0 mi SE 10.4 mph - N/A   Light Drizzle
8:10 AM 66.2 °F 66.2 °F 100% 30.15 in 10.0 mi SE 11.5 mph - N/A   Light Drizzle
8:17 AM 66.2 °F 66.2 °F 100% 30.15 in 10.0 mi SE 10.4 mph - N/A   Light Drizzle
8:40 AM 66.2 °F 66.2 °F 100% 30.15 in 7.0 mi SE 10.4 mph - N/A Rain Light Rain
8:42 AM 66.2 °F 66.2 °F 100% 30.15 in 8.0 mi SE 10.4 mph - N/A Rain Light Rain
8:55 AM 66.6 °F 66.6 °F 100% 30.15 in 7.0 mi SE 8.1 mph - 0.01 in Rain Light Rain
9:02 AM 66.2 °F 66.2 °F 100% 30.16 in 10.0 mi SE 10.4 mph - N/A Rain Light Rain
9:08 AM 66.2 °F 66.2 °F 100% 30.16 in 10.0 mi SE 9.2 mph - N/A   Overcast
9:12 AM 66.2 °F 66.2 °F 100% 30.15 in 10.0 mi SE 8.1 mph - N/A   Light Drizzle
9:13 AM 66.2 °F 66.2 °F 100% 30.15 in 10.0 mi SE 9.2 mph - N/A   Light Drizzle
9:21 AM 66.2 °F 66.2 °F 100% 30.15 in 8.0 mi SE 9.2 mph - N/A Rain Light Rain
9:26 AM 68.0 °F 68.0 °F 100% 30.15 in 7.0 mi SE 9.2 mph - N/A Rain Light Rain
9:27 AM 68.0 °F 68.0 °F 100% 30.15 in 7.0 mi SE 10.4 mph - N/A Rain Light Rain
9:43 AM 68.0 °F 68.0 °F 100% 30.15 in 10.0 mi SE 11.5 mph - N/A   Light Drizzle
9:53 AM 68.0 °F 68.0 °F 100% 30.15 in 10.0 mi SE 9.2 mph - N/A   Overcast
9:55 AM 67.3 °F 67.3 °F 100% 30.15 in 10.0 mi SE 9.2 mph - 0.02 in   Overcast
9:59 AM 68.0 °F 68.0 °F 100% 30.15 in 10.0 mi SE 9.2 mph - N/A   Overcast
10:09 AM 68.0 °F 68.0 °F 100% 30.14 in 10.0 mi SE 12.7 mph - N/A   Overcast
10:30 AM 68.0 °F 68.0 °F 100% 30.14 in 10.0 mi SE 11.5 mph - N/A   Overcast
10:38 AM 68.0 °F 68.0 °F 100% 30.14 in 10.0 mi SE 10.4 mph - N/A   Light Drizzle
10:55 AM 68.4 °F 68.4 °F 100% 30.13 in 10.0 mi SE 12.7 mph - 0.00 in   Light Drizzle
10:58 AM 68.0 °F 68.0 °F 100% 30.13 in 10.0 mi SE 10.4 mph - N/A   Light Drizzle
11:31 AM 71.6 °F 71.6 °F 100% 30.11 in 10.0 mi SE 10.4 mph - N/A   Light Drizzle
11:46 AM 69.8 °F 69.8 °F 100% 30.11 in 10.0 mi SE 13.8 mph - N/A   Light Drizzle
11:51 AM 69.8 °F 69.8 °F 100% 30.10 in 10.0 mi SE 11.5 mph 19.6 mph N/A   Mostly Cloudy
11:53 AM 69.8 °F 69.8 °F 100% 30.10 in 10.0 mi SE 13.8 mph 19.6 mph N/A   Mostly Cloudy
11:55 AM 70.5 °F 70.5 °F 100% 30.10 in 10.0 mi SE 12.7 mph 19.6 mph 0.00 in   Mostly Cloudy
12:01 PM 69.8 °F 69.8 °F 100% 30.10 in 10.0 mi SE 13.8 mph 19.6 mph N/A   Light Drizzle
12:05 PM 69.8 °F 69.8 °F 100% 30.10 in 10.0 mi SE 12.7 mph - N/A   Mostly Cloudy
12:06 PM 69.8 °F 69.8 °F 100% 30.10 in 10.0 mi SE 12.7 mph - N/A   Light Drizzle
12:11 PM 69.8 °F 69.8 °F 100% 30.09 in 10.0 mi SE 12.7 mph 19.6 mph N/A   Overcast
12:13 PM 69.8 °F 69.8 °F 100% 30.09 in 10.0 mi SE 13.8 mph 19.6 mph N/A   Light Drizzle
12:27 PM 71.6 °F 71.6 °F 100% 30.08 in 10.0 mi SE 13.8 mph 21.9 mph N/A   Light Drizzle
12:31 PM 71.6 °F 71.6 °F 100% 30.07 in 10.0 mi SE 11.5 mph 21.9 mph N/A   Light Drizzle
12:42 PM 71.6 °F 71.6 °F 100% 30.06 in - SE 16.1 mph - N/A   Light Drizzle
12:55 PM 72.0 °F 72.0 °F 100% 30.07 in 10.0 mi SE 10.4 mph - 0.00 in   Light Drizzle
1:04 PM 71.6 °F 71.6 °F 100% 30.06 in 10.0 mi SE 15.0 mph 19.6 mph N/A   Overcast
1:32 PM 71.6 °F 71.6 °F 100% 30.04 in 10.0 mi SE 13.8 mph - N/A   Light Drizzle
1:55 PM 71.2 °F 71.2 °F 100% 30.04 in 10.0 mi SE 11.5 mph - 0.00 in   Light Drizzle
1:59 PM 71.6 °F 71.6 °F 100% 30.03 in 10.0 mi SE 13.8 mph - N/A   Overcast
2:23 PM 71.6 °F 71.6 °F 100% 30.03 in 10.0 mi SE 12.7 mph - N/A   Light Drizzle
2:43 PM 69.8 °F 69.8 °F 100% 30.02 in 10.0 mi SE 11.5 mph 18.4 mph N/A   Overcast
2:55 PM 70.2 °F 70.2 °F 100% 30.02 in 10.0 mi SE 13.8 mph - 0.00 in   Light Drizzle
3:55 PM 69.1 °F 69.1 °F 100% 30.01 in 10.0 mi SE 10.4 mph - 0.00 in   Light Drizzle
4:03 PM 69.8 °F 69.8 °F 100% 30.02 in 10.0 mi SE 9.2 mph - N/A   Overcast
4:22 PM 69.8 °F 69.8 °F 100% 30.01 in 10.0 mi SE 10.4 mph - N/A   Light Drizzle
4:55 PM 68.5 °F 68.5 °F 100% 30.01 in 10.0 mi SE 11.5 mph - 0.00 in   Light Drizzle
5:55 PM 68.2 °F 68.2 °F 100% 30.00 in 10.0 mi SE 11.5 mph - 0.00 in   Light Drizzle
6:01 PM 68.0 °F 68.0 °F 100% 30.00 in 10.0 mi SE 10.4 mph - N/A   Light Drizzle
6:35 PM 68.0 °F 68.0 °F 100% 30.00 in 10.0 mi SE 10.4 mph - N/A   Light Drizzle
6:55 PM 68.0 °F 68.0 °F 100% 29.99 in 10.0 mi SE 11.5 mph - 0.00 in   Light Drizzle
7:05 PM 68.0 °F 68.0 °F 100% 29.99 in 9.0 mi SE 10.4 mph - N/A   Light Drizzle
7:08 PM 68.0 °F 68.0 °F 100% 29.99 in 9.0 mi SE 10.4 mph - N/A   Light Drizzle
7:28 PM 68.0 °F 68.0 °F 100% 29.99 in 9.0 mi SE 9.2 mph - N/A   Light Drizzle
7:55 PM 68.0 °F 68.0 °F 100% 29.99 in 9.0 mi SE 10.4 mph - 0.00 in   Light Drizzle
8:55 PM 68.4 °F 68.4 °F 100% 29.98 in 8.0 mi SSE 10.4 mph - 0.00 in   Light Drizzle
9:55 PM 68.4 °F 68.4 °F 100% 29.98 in 8.0 mi SSE 11.5 mph - 0.00 in   Light Drizzle
10:20 PM 68.0 °F 68.0 °F 100% 29.98 in 9.0 mi SSE 13.8 mph 20.7 mph N/A   Light Drizzle
10:55 PM 69.1 °F 69.1 °F 100% 29.96 in 8.0 mi SSE 16.1 mph - 0.00 in Rain Light Rain
10:57 PM 69.8 °F 69.8 °F 100% 29.96 in 8.0 mi SSE 15.0 mph - N/A   Overcast
11:03 PM 69.8 °F 69.8 °F 100% 29.96 in 8.0 mi South 13.8 mph - N/A   Overcast
11:20 PM 69.8 °F 69.8 °F 100% 29.95 in 8.0 mi SSE 15.0 mph - N/A   Light Drizzle
11:55 PM 69.1 °F 69.1 °F 100% 29.94 in 8.0 mi SSE 16.1 mph - 0.00 in   Light Drizzle